SBBR

Brasília International Airport/President Juscelino Kubitschek

Airport
ICAO code
SBBR
IATA Code
BSB
Summary
ICAO Region
CARSAM
ICAO Territory
Location

Lago Sul, Federal District

Serving
Brasilia
Elevation
3479 ft
Coordinates
15° 51' 46" S , 47° 54' 46" W
KCC
Airport RE
Hot and High Operations
Metar
SBBR 191100Z 14004KT 090V200 CAVOK 23/19 Q1020

Brasília's International airport.

Climatology

Tropical Savanna climate (Köppen climate classification Aw)

Runways

Designator Length Width Surface Rops
11L/29R 3200 45 ASP Yes/Yes
11R/29L 3300 45 ASP Yes/Yes

Airport map

Aerial View

SKYbrary Partners:

Safety knowledge contributed by: